Location: Franzen
(48.6167°N, 15.3833°E)
Time: 09:36:23
(UTC+00:00)

COSMOS 2406 - Pass Details

Date: 22 April 2021
Orbit: 845 x 862 km, 71.0° (Epoch: 16 May)

Event Time Altitude Azimuth Distance (km) Brightness Sun altitude
Rises 23:36:12 0° 332° (NNW) 3,420 7.1 -28.2°
Reaches altitude 10° 23:38:40 10° 335° (NNW) 2,479 6.3 -28.2°
Maximum altitude 23:44:22 73° 60° (ENE) 885 3.3 -27.9°
Enters shadow 23:44:51 69° 100° (E) 907 3.2 -27.9°
